Location: Newark
(44.3248°N, 23.7839°E)
Time: 05:31:26
(UTC+00:00)

FO-29 - Pass Details

Date: 26 April 2024
Orbit: 801 x 1320 km, 98.6° (Epoch: 28 May)

Event Time Altitude Azimuth Distance (km) Brightness Sun altitude
Rises 00:18:43 0° 13° (NNE) 4,213 14.0 -26.3°
Reaches altitude 10° 00:21:21 10° 15° (NNE) 3,284 13.2 -26.1°
Maximum altitude 00:29:07 84° 105° (ESE) 1,329 10.1 -25.3°
Enters shadow 00:32:14 42° 189° (S) 1,801 10.4 -25.0°
